{"data":{"norad_id":59291,"intl_designator":"2024-053D","name":"AEROCUBE 16B","alt_names":[],"object_type":"PAYLOAD","status":"ACTIVE","operator":null,"country":"US","launch_date":"2024-03-21","launch_site_code":"WLPIS","launch_vehicle":null,"mission":null,"orbit_class":"UNKNOWN","rcs_meters":null,"size_class":null,"mass_kg":null,"dimensions":null,"purposes":[],"wikipedia_slug":null,"has_3d_model":false,"image_url":null,"decayed_at":null,"tle_current":{"epoch":"2026-09-21T23:38:37.248576Z","epoch_age_seconds":132615,"freshness":"FRESH","line1":"1 59291U 24053D   26264.98515334  .00012725  00000+0  26005-3 0  9990","line2":"2 59291  49.9897 191.7434 0002529  35.6494 324.4639 15.46464800136157","mean_motion":15.464648,"eccentricity":0.0002529,"inclination_deg":49.9897,"raan_deg":191.7434,"arg_perigee_deg":35.6494,"mean_anomaly_deg":324.4639,"bstar":0.00026005,"rev_number":13615,"period_min":93.115601467295,"perigee_km":425.35640616304,"apogee_km":428.79848362927,"semimajor_km":6805.2144448962,"source":"CELESTRAK","updated_at":"2026-09-23T09:00:19.285934Z"}}}